Regional Weather Roundup
Issued by NWS

Home | Current Version | Previous Version | Graphics & Text | Print | Product List | Glossary On
Versions: 1 2 3 4 5 6 7 8 9 10 11 12 13 14 15 16 17 18 19 20 21 22 23 24 25 26 27 28 29 30 31 32 33 34 35 36 37 38 39 40 41 42 43 44 45 46 47 48 49 50
000
ASUS43 KOAX 172010
RWRNE

WEATHER ROUNDUP FOR NEBRASKA
NATIONAL WEATHER SERVICE OMAHA NE
200 PM CST WED DEC 17 2014

NOTES: SATELLITE DATA IS BEING USED TO AUGMENT CLOUD COVER ABOVE
       12000 FEET.
       "FAIR" INDICATES FEW OR NO CLOUDS BELOW 12,000 FEET WITH NO
       SIGNIFICANT WEATHER AND/OR OBSTRUCTIONS TO VISIBILITY.

  * THESE STATIONS DO NOT REPORT WEATHER SUCH AS RAIN...SNOW OR FOG.

NEZ001>004-019>022-054>056-172100-
NEBRASKA PANHANDLE

CITY           SKY/WX    TMP DP  RH WIND       PRES   REMARKS
SCOTTSBLUFF    MOSUNNY   22  19  89 E10       29.95F WCI  11
ALLIANCE       CLOUDY    24  21  88 S14       29.96F WCI  12
CHADRON        MOSUNNY   28  19  69 CALM      29.97F
KIMBALL        MOSUNNY   32  26  76 SE6       29.90F WCI  27
SIDNEY         FOG       22  19  89 S10       29.97F VSB 3/4 WCI  11
$$

NEZ057>060-069>072-079>082-172100-
SOUTHWEST NEBRASKA

CITY           SKY/WX    TMP DP  RH WIND       PRES   REMARKS
NORTH PLATTE   CLOUDY    22  20  92 SE7       30.10F WCI  13
IMPERIAL       CLOUDY    23  20  88 S7        30.05F WCI  15
LEXINGTON      CLOUDY    22  21  94 SE6       30.15F FOG     WCI  15
MCCOOK         CLOUDY    23  21  92 E9        30.11F FOG     WCI  13
OGALLALA       CLOUDY    22  21  96 S9        30.06F WCI  12
$$

NEZ005>010-023>029-035>040-094-172100-
NORTH CENTRAL NEBRASKA

CITY           SKY/WX    TMP DP  RH WIND       PRES   REMARKS
VALENTINE      CLOUDY    22  19  89 S13       30.10F WCI  10
AINSWORTH      CLOUDY    20  19  96 S7        30.11F WCI  11
BROKEN BOW     CLOUDY    22  21  96 S9        30.14F FOG     WCI  12
O`NEILL        CLOUDY    19  19  96 SE5       30.19F WCI  13
ORD            CLOUDY    21  18  88 S5        30.18F WCI  15
THEDFORD       CLOUDY    23  22  95 S9        30.10F FOG     WCI  13
$$

NEZ041-046>049-061>064-073>077-083>087-172100-
SOUTH CENTRAL NEBRASKA

CITY           SKY/WX    TMP DP  RH WIND       PRES   REMARKS
GRAND ISLAND   CLOUDY    24  19  81 SE6       30.20F WCI  17
AURORA         CLOUDY    25  20  81 SE6       30.20F WCI  18
HASTINGS       CLOUDY    24  18  77 SE9       30.18F WCI  14
HEBRON         CLOUDY    27  17  65 SE6       30.23F WCI  20
HOLDREGE       CLOUDY    23  21  93 E6        30.15F WCI  16
KEARNEY *      CLOUDY    25  19  80 E6        30.17F WCI  18
YORK           CLOUDY    27  18  69 SE6       30.21F WCI  20
$$

NEZ011>018-030>034-042>045-172100-
NORTHEAST NEBRASKA

CITY           SKY/WX    TMP DP  RH WIND       PRES   REMARKS
NORFOLK        SUNNY     25  14  63 S6        30.23F WCI  18
ALBION         CLOUDY    23  18  81 SE5       30.22F WCI  17
BLAIR          MOSUNNY   28  17  62 SE6       30.27S WCI  21
COLUMBUS *     CLOUDY    25  12  58 E5        30.26F WCI  19
FREMONT        MOSUNNY   27  17  67 CALM      30.27F
TEKAMAH        MOSUNNY   25  14  63 CALM      30.29F
WAYNE          SUNNY     26  16  64 E5        30.25F WCI  20
$$

NEZ050>053-065>068-078-088>093-172100-
SOUTHEAST NEBRASKA

CITY           SKY/WX    TMP DP  RH WIND       PRES   REMARKS
LINCOLN        CLOUDY    26  15  63 NE6       30.27F WCI  19
OMAHA EPPLEY   PTSUNNY   27  15  61 CALM      30.30F
BEATRICE       CLOUDY    27  17  66 SE3       30.24F
FALLS CITY     CLOUDY    28  18  66 N3        30.27F
NEBRASKA CITY  CLOUDY    25  15  65 NE6       30.27F WCI  18
PLATTSMOUTH    CLOUDY    25  14  64 NE3       30.27F
$$

NEZ044-045-051>053-067-172100-
OMAHA AREA

CITY           SKY/WX    TMP DP  RH WIND       PRES   REMARKS
OMAHA EPPLEY   PTSUNNY   27  15  61 CALM      30.30F
BLAIR          MOSUNNY   28  17  62 SE6       30.27S WCI  21
FREMONT        MOSUNNY   27  17  67 CALM      30.27F
MILLARD        MOSUNNY   27  16  63 SE5       30.28F WCI  22
OFFUTT AFB     PTSUNNY   26  15  63 CALM      30.28F
PLATTSMOUTH    CLOUDY    25  14  64 NE3       30.27F
WAHOO          CLOUDY    25  16  68 CALM      30.27F
$$



USA.gov is the U.S. government's official web portal to all federal, state and local government web resources and services.